Location: Taupo
(38.6830°S, 176.0830°E)
Time: 10:35:45
(UTC+13:00)

Cosmos 1933 - Pass Details

Date: 24 January 2019
Orbit: 548 x 564 km, 82.5° (Epoch: 16 February)

Event Time Altitude Azimuth Distance (km) Brightness Sun altitude
Exits shadow 22:58:09 30° 316° (NW) 1,039 4.6 -22.3°
Maximum altitude 22:59:50 48° 260° (W) 753 4.2 -22.5°
Drops below altitude 10° 23:03:52 10° 185° (S) 1,889 6.8 -23.0°
Sets 23:06:08 0° 178° (S) 2,796 7.7 -23.3°
